TimeEST,TemperatureF,Dew PointF,Humidity,Sea Level PressureIn,VisibilityMPH,Wind Direction,Wind SpeedMPH,Gust SpeedMPH,PrecipitationIn,Events,Conditions,WindDirDegrees,DateUTC
12:15 AM,32.0,21.2,64,30.09,10.0,NE,6.9,-,N/A,,Clear,40,2012-11-07 05:15:00
12:35 AM,32.0,21.2,64,30.07,10.0,NE,6.9,-,N/A,,Clear,40,2012-11-07 05:35:00
12:55 AM,32.0,21.2,64,30.07,10.0,NNE,5.8,-,N/A,,Clear,30,2012-11-07 05:55:00
1:15 AM,32.0,21.2,64,30.05,10.0,NNE,5.8,-,N/A,,Mostly Cloudy,30,2012-11-07 06:15:00
1:35 AM,32.0,21.2,64,30.04,10.0,NNE,6.9,-,N/A,,Scattered Clouds,20,2012-11-07 06:35:00
1:55 AM,32.0,21.2,64,30.03,10.0,NE,5.8,-,N/A,,Clear,50,2012-11-07 06:55:00
2:15 AM,32.0,21.2,64,30.03,10.0,ENE,5.8,-,N/A,,Clear,60,2012-11-07 07:15:00
2:35 AM,32.0,21.2,64,30.02,10.0,NE,6.9,-,N/A,,Clear,40,2012-11-07 07:35:00
2:55 AM,32.0,19.4,60,30.00,10.0,NE,8.1,-,N/A,,Clear,40,2012-11-07 07:55:00
3:15 AM,32.0,19.4,60,30.00,10.0,NE,5.8,-,N/A,,Clear,50,2012-11-07 08:15:00
3:55 AM,33.8,19.4,56,29.99,10.0,NNE,8.1,-,N/A,,Clear,30,2012-11-07 08:55:00
4:15 AM,33.8,17.6,52,29.97,10.0,NE,10.4,17.3,N/A,,Clear,40,2012-11-07 09:15:00
4:35 AM,33.8,17.6,52,29.97,10.0,NE,15.0,18.4,N/A,,Clear,40,2012-11-07 09:35:00
4:55 AM,33.8,17.6,52,29.97,10.0,NE,13.8,18.4,N/A,,Clear,40,2012-11-07 09:55:00
5:35 AM,33.8,17.6,52,29.98,10.0,NE,13.8,21.9,N/A,,Clear,50,2012-11-07 10:35:00
5:55 AM,33.8,19.4,56,29.98,10.0,NE,15.0,21.9,N/A,,Scattered Clouds,50,2012-11-07 10:55:00
6:15 AM,33.8,19.4,56,29.98,10.0,NE,11.5,23.0,N/A,,Clear,40,2012-11-07 11:15:00
6:35 AM,33.8,19.4,56,29.99,10.0,NE,15.0,18.4,N/A,,Scattered Clouds,40,2012-11-07 11:35:00
6:55 AM,33.8,19.4,56,29.99,10.0,NE,13.8,18.4,N/A,,Scattered Clouds,40,2012-11-07 11:55:00
7:15 AM,33.8,21.2,60,29.99,10.0,NE,11.5,18.4,N/A,,Scattered Clouds,40,2012-11-07 12:15:00
7:35 AM,33.8,21.2,60,29.99,10.0,NNE,10.4,-,N/A,,Scattered Clouds,20,2012-11-07 12:35:00
7:55 AM,33.8,21.2,60,29.99,10.0,NE,11.5,16.1,N/A,,Scattered Clouds,40,2012-11-07 12:55:00
8:15 AM,35.6,23.0,60,29.98,10.0,NNE,9.2,-,N/A,,Clear,30,2012-11-07 13:15:00
8:35 AM,35.6,23.0,60,29.99,10.0,NE,12.7,-,N/A,,Scattered Clouds,50,2012-11-07 13:35:00
8:55 AM,35.6,23.0,60,29.98,10.0,NE,16.1,20.7,N/A,,Overcast,40,2012-11-07 13:55:00
9:15 AM,35.6,24.8,65,29.97,10.0,NE,10.4,19.6,N/A,,Mostly Cloudy,40,2012-11-07 14:15:00
9:35 AM,37.4,24.8,60,29.96,10.0,NNE,8.1,-,N/A,,Mostly Cloudy,20,2012-11-07 14:35:00
9:55 AM,37.4,24.8,60,29.96,10.0,NNE,12.7,18.4,N/A,,Scattered Clouds,30,2012-11-07 14:55:00
10:15 AM,37.4,24.8,60,29.95,10.0,NNE,11.5,20.7,N/A,,Clear,30,2012-11-07 15:15:00
10:35 AM,37.4,24.8,60,29.95,10.0,NNE,12.7,-,N/A,,Clear,20,2012-11-07 15:35:00
10:55 AM,37.4,24.8,60,29.94,10.0,NE,11.5,19.6,N/A,,Clear,40,2012-11-07 15:55:00
11:15 AM,37.4,24.8,60,29.94,10.0,NNE,15.0,-,N/A,,Clear,30,2012-11-07 16:15:00
11:35 AM,37.4,24.8,60,29.93,10.0,NNE,10.4,18.4,N/A,,Scattered Clouds,20,2012-11-07 16:35:00
11:55 AM,39.2,26.6,61,29.92,10.0,NNE,12.7,18.4,N/A,,Scattered Clouds,30,2012-11-07 16:55:00
12:15 PM,39.2,26.6,61,29.91,10.0,NNE,10.4,19.6,N/A,,Scattered Clouds,30,2012-11-07 17:15:00
12:35 PM,39.2,26.6,61,29.91,10.0,North,9.2,-,N/A,,Mostly Cloudy,10,2012-11-07 17:35:00
12:55 PM,39.2,26.6,61,29.90,10.0,NNE,12.7,-,N/A,,Overcast,30,2012-11-07 17:55:00
1:15 PM,39.2,26.6,61,29.91,10.0,North,8.1,-,N/A,,Overcast,10,2012-11-07 18:15:00
1:35 PM,39.2,24.8,56,29.91,10.0,NNE,12.7,18.4,N/A,,Overcast,20,2012-11-07 18:35:00
1:55 PM,41.0,26.6,57,29.91,10.0,NNE,11.5,-,N/A,,Overcast,20,2012-11-07 18:55:00
2:15 PM,41.0,26.6,57,29.91,10.0,North,10.4,16.1,N/A,,Overcast,350,2012-11-07 19:15:00
2:35 PM,41.0,26.6,57,29.91,10.0,North,13.8,-,N/A,,Overcast,10,2012-11-07 19:35:00
2:55 PM,41.0,26.6,57,29.92,10.0,North,12.7,17.3,N/A,,Overcast,360,2012-11-07 19:55:00
3:15 PM,41.0,24.8,53,29.92,10.0,North,9.2,16.1,N/A,,Overcast,350,2012-11-07 20:15:00
3:35 PM,39.2,26.6,61,29.92,10.0,North,12.7,17.3,N/A,,Overcast,10,2012-11-07 20:35:00
3:55 PM,37.4,28.4,70,29.92,10.0,North,11.5,19.6,N/A,Rain,Light Rain,360,2012-11-07 20:55:00
4:15 PM,37.4,28.4,70,29.92,10.0,North,10.4,-,N/A,,Mostly Cloudy,360,2012-11-07 21:15:00
4:35 PM,37.4,28.4,70,29.92,10.0,North,9.2,-,N/A,Rain,Light Rain,360,2012-11-07 21:35:00
4:55 PM,35.6,30.2,81,29.92,10.0,North,9.2,18.4,N/A,Rain,Light Rain,350,2012-11-07 21:55:00
5:15 PM,35.6,30.2,81,29.92,10.0,NNW,12.7,20.7,N/A,Rain,Light Rain,340,2012-11-07 22:15:00
5:35 PM,33.8,32.0,93,29.91,10.0,NNW,6.9,-,N/A,,Mostly Cloudy,330,2012-11-07 22:35:00
5:55 PM,35.6,30.2,81,29.91,10.0,NW,4.6,-,N/A,,Overcast,310,2012-11-07 22:55:00
6:15 PM,35.6,30.2,81,29.92,10.0,NNW,3.5,-,N/A,,Overcast,340,2012-11-07 23:15:00
6:35 PM,35.6,28.4,75,29.91,10.0,NNW,6.9,-,N/A,,Overcast,340,2012-11-07 23:35:00
6:55 PM,37.4,26.6,65,29.91,10.0,North,11.5,16.1,N/A,,Overcast,10,2012-11-07 23:55:00
7:15 PM,37.4,26.6,65,29.91,10.0,North,15.0,21.9,N/A,,Overcast,10,2012-11-08 00:15:00
7:35 PM,37.4,26.6,65,29.92,10.0,North,10.4,19.6,N/A,,Mostly Cloudy,360,2012-11-08 00:35:00
7:55 PM,37.4,26.6,65,29.91,10.0,North,11.5,21.9,N/A,,Mostly Cloudy,10,2012-11-08 00:55:00
8:15 PM,37.4,24.8,60,29.92,10.0,North,9.2,17.3,N/A,,Overcast,360,2012-11-08 01:15:00
8:35 PM,37.4,26.6,65,29.92,10.0,North,10.4,20.7,N/A,,Overcast,360,2012-11-08 01:35:00
8:55 PM,35.6,26.6,70,29.92,5.0,North,11.5,21.9,N/A,Snow,Light Snow,350,2012-11-08 01:55:00
9:15 PM,35.6,26.6,70,29.92,7.0,North,15.0,21.9,N/A,Snow,Light Snow,10,2012-11-08 02:15:00
9:35 PM,35.6,26.6,70,29.92,7.0,North,13.8,21.9,N/A,Snow,Light Snow,350,2012-11-08 02:35:00
9:55 PM,35.6,26.6,70,29.91,7.0,North,11.5,21.9,N/A,Snow,Light Snow,360,2012-11-08 02:55:00
10:15 PM,35.6,24.8,65,29.91,5.0,North,10.4,20.7,N/A,Snow,Light Snow,10,2012-11-08 03:15:00
10:35 PM,35.6,24.8,65,29.90,4.0,NNW,11.5,23.0,N/A,Snow,Light Snow,340,2012-11-08 03:35:00
10:55 PM,37.4,21.2,52,29.88,10.0,NNW,11.5,18.4,N/A,,Overcast,340,2012-11-08 03:55:00
11:15 PM,37.4,21.2,52,29.87,10.0,NNW,13.8,19.6,N/A,Snow,Light Snow,340,2012-11-08 04:15:00
11:35 PM,37.4,23.0,56,29.87,10.0,NNW,6.9,18.4,N/A,,Overcast,340,2012-11-08 04:35:00
11:55 PM,37.4,23.0,56,29.86,10.0,NNW,6.9,-,N/A,,Overcast,340,2012-11-08 04:55:00